When you browse on this site, cookies collect data to enhance your experience and personalize the content and advertising you see.
Visit our Privacy Policy to learn more. By continuing to use the site, you agree to this use of cookies and data.

Hourly Weather Yakushi

Today, 10 July, Friday

Time Temperature Precipitation Wind Pressure Humidity
00:00 +10°C° 0 mm 2 mps 755 mmHg 94%
01:00 +9°C° 0 mm 2 mps 755 mmHg 95%
02:00 +9°C° 0 mm 2 mps 756 mmHg 96%
03:00 +9°C° 0 mm 2 mps 756 mmHg 95%
04:00 +9°C° 0 mm 2 mps 756 mmHg 94%
05:00 +9°C° 0 mm 2 mps 756 mmHg 93%
06:00 +12°C° 0 mm 2 mps 755 mmHg 87%
07:00 +14°C° 0 mm 2 mps 755 mmHg 81%
08:00 +16°C° 0 mm 3 mps 755 mmHg 75%
09:00 +16°C° 0.3 mm 3 mps 755 mmHg 78%
10:00 +16°C° 0.3 mm 3 mps 755 mmHg 81%
11:00 +16°C° 0.3 mm 3 mps 754 mmHg 85%
12:00 +14°C° 1.1 mm 3 mps 754 mmHg 88%
13:00 +14°C° 1.1 mm 4 mps 753 mmHg 92%
14:00 +13°C° 1.1 mm 4 mps 753 mmHg 96%
15:00 +14°C° 0.6 mm 3 mps 753 mmHg 96%
16:00 +14°C° 0.6 mm 3 mps 752 mmHg 96%
17:00 +16°C° 0.6 mm 3 mps 752 mmHg 96%
18:00 +16°C° 0.1 mm 2 mps 751 mmHg 96%
19:00 +18°C° 0.1 mm 1 mps 751 mmHg 96%
20:00 +18°C° 0.1 mm 1 mps 751 mmHg 97%
21:00 +18°C° 0 mm 1 mps 751 mmHg 97%
22:00 +16°C° 0 mm 2 mps 751 mmHg 97%
23:00 +16°C° 0 mm 2 mps 751 mmHg 98%

Tomorrow, 11 July, Saturday

Time Temperature Precipitation Wind Pressure Humidity
00:00 +16°C° 0 mm 2 mps 751 mmHg 98%
01:00 +15°C° 0 mm 2 mps 751 mmHg 98%
02:00 +15°C° 0 mm 2 mps 751 mmHg 98%
03:00 +16°C° 0.2 mm 3 mps 750 mmHg 98%
04:00 +16°C° 0.2 mm 3 mps 750 mmHg 98%
05:00 +17°C° 0.2 mm 4 mps 749 mmHg 98%
06:00 +17°C° 0.1 mm 5 mps 749 mmHg 95%
07:00 +17°C° 0.1 mm 6 mps 749 mmHg 93%
08:00 +19°C° 0.1 mm 6 mps 749 mmHg 90%
09:00 +18°C° 0 mm 7 mps 750 mmHg 81%
10:00 +18°C° 0 mm 7 mps 751 mmHg 72%
11:00 +18°C° 0 mm 8 mps 751 mmHg 64%
12:00 +18°C° 0 mm 8 mps 752 mmHg 60%
13:00 +20°C° 0 mm 8 mps 752 mmHg 57%
14:00 +21°C° 0 mm 8 mps 753 mmHg 53%
15:00 +20°C° 0 mm 8 mps 753 mmHg 54%
16:00 +20°C° 0 mm 7 mps 754 mmHg 55%
17:00 +20°C° 0 mm 6 mps 754 mmHg 56%
18:00 +19°C° 0 mm 5 mps 755 mmHg 61%
19:00 +17°C° 0 mm 4 mps 755 mmHg 67%
20:00 +16°C° 0 mm 3 mps 756 mmHg 73%
21:00 +14°C° 0 mm 3 mps 756 mmHg 78%
22:00 +13°C° 0 mm 2 mps 756 mmHg 83%
23:00 +12°C° 0 mm 2 mps 757 mmHg 88%

Day after tomorrow, 12 July, Sunday

Time Temperature Precipitation Wind Pressure Humidity
00:00 +12°C° 0 mm 2 mps 757 mmHg 89%
01:00 +10°C° 0 mm 2 mps 757 mmHg 91%
02:00 +10°C° 0 mm 2 mps 757 mmHg 92%
03:00 +10°C° 0 mm 2 mps 757 mmHg 91%
04:00 +12°C° 0 mm 2 mps 757 mmHg 90%
05:00 +12°C° 0 mm 2 mps 757 mmHg 89%
06:00 +13°C° 0 mm 2 mps 758 mmHg 84%
07:00 +15°C° 0 mm 2 mps 758 mmHg 80%
08:00 +16°C° 0 mm 1 mps 758 mmHg 75%
09:00 +17°C° 0 mm 2 mps 758 mmHg 69%
10:00 +18°C° 0 mm 2 mps 758 mmHg 62%
11:00 +19°C° 0 mm 2 mps 758 mmHg 56%
12:00 +19°C° 0 mm 3 mps 757 mmHg 54%
13:00 +20°C° 0 mm 3 mps 757 mmHg 52%
14:00 +20°C° 0 mm 3 mps 757 mmHg 50%
15:00 +20°C° 0 mm 2 mps 757 mmHg 52%
16:00 +20°C° 0 mm 2 mps 757 mmHg 53%
17:00 +20°C° 0 mm 2 mps 756 mmHg 55%
18:00 +19°C° 0 mm 2 mps 756 mmHg 62%
19:00 +18°C° 0 mm 2 mps 756 mmHg 70%
20:00 +16°C° 0 mm 2 mps 757 mmHg 78%
21:00 +15°C° 0 mm 1 mps 757 mmHg 81%
22:00 +14°C° 0 mm 1 mps 757 mmHg 84%
23:00 +13°C° 0 mm 1 mps 757 mmHg 87%

13 July, Monday

Time Temperature Precipitation Wind Pressure Humidity
00:00 +12°C° 0 mm 1 mps 757 mmHg 89%
01:00 +12°C° 0 mm 1 mps 757 mmHg 91%
02:00 +11°C° 0 mm 1 mps 757 mmHg 93%
03:00 +11°C° 0 mm 1 mps 756 mmHg 93%
04:00 +10°C° 0 mm 2 mps 756 mmHg 92%
05:00 +10°C° 0 mm 2 mps 756 mmHg 92%
06:00 +13°C° 0 mm 2 mps 756 mmHg 83%
07:00 +15°C° 0 mm 2 mps 756 mmHg 75%
08:00 +17°C° 0 mm 2 mps 756 mmHg 67%
09:00 +18°C° 0.1 mm 2 mps 756 mmHg 63%
10:00 +19°C° 0.1 mm 2 mps 755 mmHg 59%
11:00 +20°C° 0.1 mm 3 mps 755 mmHg 54%
12:00 +21°C° 0.1 mm 3 mps 755 mmHg 53%
13:00 +21°C° 0.1 mm 2 mps 754 mmHg 51%
14:00 +23°C° 0.1 mm 2 mps 754 mmHg 49%
15:00 +23°C° 0 mm 2 mps 754 mmHg 49%
16:00 +23°C° 0 mm 2 mps 753 mmHg 49%
17:00 +21°C° 0 mm 2 mps 753 mmHg 49%
18:00 +20°C° 0 mm 2 mps 753 mmHg 56%
19:00 +18°C° 0 mm 2 mps 753 mmHg 63%
20:00 +18°C° 0 mm 1 mps 753 mmHg 70%
21:00 +15°C° 0 mm 2 mps 753 mmHg 75%
22:00 +14°C° 0 mm 2 mps 753 mmHg 80%
23:00 +13°C° 0 mm 2 mps 753 mmHg 85%

14 July, Tuesday

Time Temperature Precipitation Wind Pressure Humidity
00:00 +12°C° 0 mm 2 mps 754 mmHg 88%
01:00 +11°C° 0 mm 3 mps 754 mmHg 92%
02:00 +11°C° 0 mm 3 mps 754 mmHg 95%
03:00 +11°C° 0 mm 3 mps 754 mmHg 92%
04:00 +10°C° 0 mm 3 mps 754 mmHg 90%
05:00 +10°C° 0 mm 3 mps 754 mmHg 88%
06:00 +12°C° 0 mm 4 mps 754 mmHg 82%
07:00 +13°C° 0 mm 4 mps 754 mmHg 76%
08:00 +15°C° 0 mm 4 mps 754 mmHg 71%
09:00 +17°C° 0 mm 4 mps 754 mmHg 62%
10:00 +18°C° 0 mm 4 mps 754 mmHg 53%
11:00 +19°C° 0 mm 5 mps 754 mmHg 44%
12:00 +20°C° 0 mm 4 mps 754 mmHg 43%
13:00 +20°C° 0 mm 4 mps 754 mmHg 43%
14:00 +21°C° 0 mm 4 mps 753 mmHg 42%
15:00 +21°C° 0 mm 4 mps 753 mmHg 44%
16:00 +21°C° 0 mm 3 mps 753 mmHg 46%
17:00 +21°C° 0 mm 3 mps 753 mmHg 48%
18:00 +19°C° 0 mm 2 mps 753 mmHg 57%
19:00 +18°C° 0 mm 2 mps 753 mmHg 65%
20:00 +17°C° 0 mm 2 mps 753 mmHg 73%
21:00 +15°C° 0 mm 2 mps 753 mmHg 75%
22:00 +14°C° 0 mm 2 mps 754 mmHg 76%
23:00 +12°C° 0 mm 3 mps 754 mmHg 77%

15 July, Wednesday

Time Temperature Precipitation Wind Pressure Humidity
00:00 +12°C° 0 mm 2 mps 754 mmHg 80%
01:00 +10°C° 0 mm 2 mps 754 mmHg 83%
02:00 +10°C° 0 mm 2 mps 754 mmHg 86%
03:00 +10°C° 0 mm 2 mps 754 mmHg 88%
04:00 +10°C° 0 mm 2 mps 754 mmHg 89%
05:00 +10°C° 0 mm 2 mps 754 mmHg 90%
06:00 +13°C° 0 mm 2 mps 754 mmHg 83%
07:00 +16°C° 0 mm 2 mps 754 mmHg 75%
08:00 +18°C° 0 mm 3 mps 754 mmHg 68%
09:00 +19°C° 0.1 mm 3 mps 754 mmHg 64%
10:00 +20°C° 0.1 mm 3 mps 754 mmHg 61%
11:00 +21°C° 0.1 mm 3 mps 754 mmHg 57%
12:00 +22°C° 0.1 mm 3 mps 754 mmHg 55%
13:00 +22°C° 0.1 mm 3 mps 754 mmHg 52%
14:00 +24°C° 0.1 mm 2 mps 754 mmHg 50%
15:00 +24°C° 0 mm 2 mps 754 mmHg 51%
16:00 +24°C° 0 mm 2 mps 754 mmHg 53%
17:00 +24°C° 0 mm 1 mps 754 mmHg 54%
18:00 +22°C° 0.1 mm 1 mps 754 mmHg 62%
19:00 +21°C° 0.1 mm 1 mps 754 mmHg 69%
20:00 +19°C° 0.1 mm 1 mps 754 mmHg 77%
21:00 +18°C° 0 mm 1 mps 754 mmHg 80%
22:00 +16°C° 0 mm 1 mps 754 mmHg 83%
23:00 +15°C° 0 mm 1 mps 754 mmHg 86%
Show more